Location: Unspecified
(42.3650°N, 71.1030°W)
Time: 15:36:50
(UTC+00:00)

S-56A Canister/Altair - Pass Details

Date: 02 July 2024
Orbit: 638 x 2487 km, 38.9° (Epoch: 20 July)

Event Time Altitude Azimuth Distance (km) Brightness Sun altitude
Rises 04:22:52 0° 280° (W) 4,475 11.7 -24.4°
Reaches altitude 10° 04:25:45 10° 273° (W) 3,736 11.1 -24.4°
Maximum altitude 04:34:50 39° 209° (SSW) 2,718 9.8 -24.6°
Enters shadow 04:37:22 36° 186° (S) 2,962 9.9 -24.6°
